Flag for U.S.A. Weather past 2 weeks in Springfield, Missouri, U.S.A.

37 °F

Low clouds.

Feels Like: 29 °F
Forecast: 37 / 39 °F
Wind: 13 mph from Northeast

Location: Springfield Regional Airport

Current Time: Nov 28, 2015 at 1:40:23 AM

Latest Report: Nov 28, 2015 at 1:04 AM

Visibility: 9 mi

Pressure: 30.25 "Hg

Humidity: 93%

Dew point: 35 °F

Location of SpringfieldLocation

Historic Weather in Springfield — Graph


Springfield temperature yesterday

Maximum temperature yesterday: 44 °F (at 1:04 AM)
Minimum temperature yesterday: 38 °F (at 7:59 AM)
Average temperature yesterday: 39 °F

Past Weeks' High & Low Weather Summary

High67 °F (Nov 14, 1:52 PM)96% (Nov 17, 11:52 AM)30.37 "Hg (Nov 17, 11:52 AM)
Low21 °F (Nov 22, 1:52 AM)20% (Nov 23, 2:52 PM)29.43 "Hg (Nov 17, 5:52 PM)
Average48 °F64%30.08 "Hg
* Reported Nov 12 11:52 PM — Nov 27 11:52 PM, Springfield, Weather by CustomWeather, © 2015

Note: Actual official high and low records may vary slightly from our data, if they occured in-between our weather recording intervals... More about our weather records


Springfield weather history for previous 24 hours

Time TempWeatherWind HumidityBarometerVisibility
11:52 PM
Fri, Nov 27
38 °FLow clouds.15 mph90%30.29 "Hg10 mi
10:52 PM38 °FFog.12 mph90%30.30 "Hg5 mi
9:52 PM38 °FLight rain. Low clouds.13 mph90%30.30 "Hg9 mi
8:52 PM38 °FLight rain. Low clouds.16 mph93%30.30 "Hg10 mi
7:52 PM38 °FLight rain. Fog.12 mph90%30.31 "Hg5 mi
6:52 PM38 °FLight rain. Low clouds.13 mph90%30.30 "Hg9 mi
5:52 PM38 °FRain. Fog.10 mph93%30.30 "Hg6 mi
4:59 PM38 °FLight rain. Fog.15 mph90%30.25 "Hg5 mi
3:52 PM38 °FLight rain. Low clouds.17 mph90%30.25 "Hg10 mi
2:52 PM38 °FLight rain. Fog.14 mph93%30.25 "Hg6 mi
1:59 PM38 °FRain. Fog.14 mph90%30.25 "Hg2 mi
12:52 PM38 °FLight rain. Mostly cloudy.18 mph90%30.25 "Hg9 mi
11:52 AM38 °FRain. Fog.17 mph90%30.27 "Hg3 mi
10:52 AM38 °FLight rain. Mostly cloudy.14 mph90%30.27 "Hg8 mi
9:52 AM38 °FRain. Fog.13 mph93%30.25 "Hg4 mi
8:52 AM38 °FRain. Fog.14 mph93%30.25 "Hg5 mi
7:59 AM38 °FRain. Fog.13 mph93%30.26 "Hg2 mi
6:52 AM39 °FLight rain. Low clouds.13 mph93%30.23 "Hg7 mi
5:59 AM39 °FRain. Fog.17 mph93%30.22 "Hg6 mi
4:52 AM42 °FLight rain. Fog.14 mph92%30.21 "Hg6 mi
3:52 AM44 °FRain. Fog.10 mph93%30.18 "Hg4 mi
3:01 AM44 °FRain. Fog.3 mph93%30.18 "Hg2 mi
2:52 AM44 °FRain. Fog.6 mph93%30.16 "Hg3 mi
1:52 AM42 °FRain. Fog.13 mph92%30.16 "Hg4 mi
1:04 AM44 °FRain. Fog.16 mph93%30.15 "Hg3 mi
Weather by CustomWeather, © 2015

See weather overviewHow to use our weather pages